Home   Weather   Kelowna   Past weeks

Flag for Canada Past Weather in Kelowna, British Columbia, Canada — Yesterday and Last 2 Weeks

Now
36 °F

Overcast.


Feels Like: 36 °F
Forecast: 30 / 37 °F
Wind: 2 mph from South

Location: Kelowna Airport

Current Time: Jan 23, 2017 at 3:04:52 pm

Latest Report: Jan 23, 2017 at 2:00 pm


Visibility: 9 mi

Pressure: 29.86 "Hg

Humidity: 93%

Dew Point: 34 °F

Location of KelownaLocation

Past Weather in Kelowna — Graph

°F

Kelowna Temperature Yesterday

Maximum temperature yesterday: 36 °F (at 12:00 pm)
Minimum temperature yesterday: 27 °F (at 12:52 am)
Average temperature yesterday: 32 °F

High & Low Weather Summary for the Past Weeks

 TemperatureHumidityPressure
High41 °F (Jan 19, 2:00 pm)100% (Jan 8, 7:00 pm)30.76 "Hg (Jan 8, 7:00 pm)
Low-13 °F (Jan 12, 12:00 am)53% (Jan 10, 11:00 am)29.34 "Hg (Jan 20, 8:00 pm)
Average22 °F86%29.95 "Hg
* Reported Jan 8 1:00 pm — Jan 23 1:00 pm, Kelowna, Weather by CustomWeather, © 2017

Note: Actual official high and low records may vary slightly from our data, if they occured in-between our weather recording intervals... More about our weather records

Advertising

Kelowna Weather History for the Previous 24 Hours

Scroll right to see more
 ConditionsComfort  
Time TempWeatherWind HumidityBarometerVisibility
1:00 pm
Mon, Jan 23
36 °FMostly cloudy.No wind93%29.86 "Hg9 mi
12:00 pm36 °FMostly cloudy.No wind93%29.85 "Hg9 mi
11:10 am34 °FFog.No wind100%29.86 "Hg6 mi
10:34 am34 °FFog.No wind93%29.86 "Hg5 mi
10:00 am34 °FLight rain. Fog.2 mph93%29.85 "Hg4 mi
9:47 am34 °FLight rain. Fog.2 mph93%29.85 "Hg4 mi
9:09 am32 °FIce fog.No wind100%29.84 "Hg5 mi
9:00 am32 °FIce fog.2 mph100%29.83 "Hg4 mi
8:34 am30 °FIce fog.No wind100%29.82 "Hg4 mi
8:00 am30 °FLight snow. Cloudy.No wind100%29.81 "Hg4 mi
7:24 am30 °FLight snow. Passing clouds.No wind100%29.80 "Hg5 mi
7:00 am30 °FIce fog.2 mph100%29.79 "Hg5 mi
6:50 am28 °FIce fog.2 mph100%29.79 "Hg5 mi
6:38 am28 °FIce fog.2 mph100%29.78 "Hg4 mi
6:00 am30 °FIce fog.2 mph100%29.76 "Hg6 mi
5:33 am30 °FIce fog.3 mph93%29.75 "Hg6 mi
5:02 am30 °FPassing clouds.5 mph100%29.75 "Hg9 mi
4:14 am30 °FLight snow. Passing clouds.3 mph100%29.74 "Hg9 mi
4:00 am30 °FPassing clouds.5 mph100%29.73 "Hg8 mi
3:40 am30 °FLight snow. Passing clouds.5 mph100%29.73 "Hg6 mi
3:23 am28 °FIce fog.3 mph100%29.73 "Hg6 mi
3:00 am28 °FIce fog.2 mph100%29.73 "Hg5 mi
2:40 am28 °FIce fog.3 mph100%29.72 "Hg3 mi
2:14 am28 °FIce fog.3 mph100%29.71 "Hg1 mi
2:07 am30 °FIce fog.2 mph100%29.71 "Hg5 mi
1:34 am30 °FIce fog.3 mph100%29.70 "Hg6 mi
1:00 am30 °FIce fog.2 mph100%29.69 "Hg4 mi
12:46 am30 °FIce fog.2 mph100%29.70 "Hg3 mi
12:37 am30 °FIce fog.No wind100%29.69 "Hg1 mi
12:23 am30 °FIce fog.No wind100%29.69 "Hg2 mi
12:00 am30 °FIce fog.No wind100%29.68 "Hg5 mi
11:28 pm
Sun, Jan 22
30 °FIce fog.No wind100%29.69 "Hg5 mi
11:02 pm32 °FIce fog.2 mph93%29.68 "Hg6 mi
10:27 pm32 °FIce fog.3 mph93%29.68 "Hg6 mi
10:00 pm32 °FIce fog.No wind100%29.67 "Hg4 mi
9:51 pm30 °FIce fog.No wind100%29.67 "Hg5 mi
9:33 pm32 °FIce fog.5 mph100%29.67 "Hg6 mi
9:00 pm32 °FIce fog.No wind100%29.67 "Hg4 mi
8:24 pm32 °FIce fog.2 mph100%29.67 "Hg5 mi
8:00 pm32 °FClear.2 mph100%29.66 "Hg7 mi
7:00 pm34 °FClear.No wind93%29.67 "Hg7 mi
6:44 pm34 °FFog.2 mph93%29.67 "Hg6 mi
6:37 pm34 °FFog.2 mph93%29.67 "Hg5 mi
6:14 pm34 °FFog.No wind93%29.67 "Hg5 mi
6:00 pm34 °FOvercast.No wind93%29.67 "Hg7 mi
5:11 pm34 °FPassing clouds.3 mph93%29.66 "Hg9 mi
5:00 pm34 °FLight rain. Passing clouds.5 mph93%29.66 "Hg9 mi
4:00 pm36 °FLight rain. Cloudy.No wind87%29.66 "Hg9 mi
3:00 pm34 °FSunny.2 mph93%29.65 "Hg9 mi
Weather by CustomWeather, © 2017

See weather overviewHow to use our weather pages